Location: Franzen
(48.6167°N, 15.3833°E)
Time: 16:27:35
(UTC+00:00)

Altair - Pass Details

Date: 08 August 2021
Orbit: 1501 x 1682 km, 47.2° (Epoch: 19 September)

Event Time Altitude Azimuth Distance (km) Brightness Sun altitude
Rises 22:35:30 0° 227° (SW) 4,811 - -25.2°
Reaches altitude 10° 22:38:44 10° 223° (SW) 3,802 - -25.3°
Exits shadow 22:44:47 40° 199° (SSW) 2,183 7.8 -25.4°
Maximum altitude 22:47:57 53° 150° (SSE) 1,843 7.5 -25.4°
Drops below altitude 10° 22:56:52 10° 77° (ENE) 3,687 9.6 -25.5°
Sets 22:59:57 0° 73° (ENE) 4,657 10.2 -25.5°
